#timestamp,LO_Frequency,Hit,StdDev 
1605384015.4,286046998.7,P
1605384035.2,286046998.7,Y
1605384055.1,286046998.8,P
1605384056.0,286046998.8,P
1605384075.8,286046998.8,P
1605384095.6,286046998.7,Y
1605384115.5,286047000.7,P
1605384135.3,286046998.3,N
1605384155.1,286046998.2,N
1605384175.9,286046998.1,N
1605384195.7,286046998.1,N
1605384215.5,286046998.7,N
1605384235.4,286046998.5,N
1605384255.2,286046999.3,N
1605384275.0,286046999.4,N
1605384275.9,286046999.4,N
1605384295.8,286046996.5,Y
1605384315.6,286046999.1,P
1605384335.4,286046999.2,P
1605384355.3,286046996.7,P
1605384375.1,286046997.6,N
1605384376.0,286046997.6,N
1605384395.8,286046996.5,Y
1605384415.7,286047000.8,P
1605384435.5,286046998.1,N
1605384455.3,286046998.4,N
1605384475.2,286046998.4,N
1605384495.9,286046998.3,N
1605384515.7,286046999.1,N
1605384535.6,286046997.1,Y
1605384555.4,286046998.6,P
1605384575.2,286046998.2,P
1605384595.1,286047001.2,P
1605384596.0,286047001.2,N
1605384615.8,286046999.0,N
1605384635.6,286046998.7,N
1605384655.5,286046996.9,N
1605384675.3,286046996.5,N
1605384695.1,286046998.7,N
1605384715.9,286046999.1,N
1605384735.7,286046996.9,N
1605384755.5,286046997.2,N
1605384775.4,286046997.5,N
1605384795.2,286046997.5,N
1605384815.0,286046995.3,Y
1605384815.9,286046995.3,P
1605384835.8,286046999.2,N
1605384855.6,286046999.1,N
1605384875.4,286046996.5,N
1605384895.3,286046999.4,N
1605384915.1,286046996.8,N
1605384916.0,286046996.8,N
1605384935.8,286046995.4,Y
1605384955.7,286046999.0,P
1605384975.5,286046998.2,N
1605384995.3,286047000.8,N
1605385015.2,286046998.7,N
1605385035.9,286046998.7,N
1605385055.7,286047001.0,N
1605385075.5,286047000.4,N
1605385095.4,286046999.4,N
1605385115.2,286046998.9,N
1605385135.0,286046999.6,N
1605385135.9,286046999.6,N
1605385155.8,286046996.7,Y
1605385175.6,286046999.4,P
1605385195.4,286046999.6,P
1605385215.3,286046996.7,P
1605385235.1,286046997.8,N
1605385255.8,286046997.4,N
1605385275.7,286046997.9,N
1605385295.5,286046997.9,N
1605385315.3,286046995.3,Y
1605385335.2,286046999.2,P
1605385355.0,286046999.5,N
1605385355.9,286046999.5,N
1605385375.7,286046996.9,Y
1605385395.6,286046999.4,P
1605385415.4,286046999.5,P
1605385435.2,286046999.1,P
1605385455.1,286046998.9,Y
1605385456.0,286046998.9,P
1605385475.8,286046998.9,P
1605385495.6,286046998.4,P
1605385515.5,286046998.7,Y
1605385535.3,286046998.6,P
1605385555.1,286046998.1,P
1605385575.9,286046998.5,P
1605385595.7,286046998.5,Y
1605385615.6,286047002.4,P
1605385635.4,286046999.7,N
1605385655.2,286047001.0,N
1605385675.0,286047000.3,N
1605385676.0,286047000.3,N
1605385695.8,286047000.0,N
1605385715.6,286046999.9,N
1605385735.4,286047000.7,N
1605385755.3,286047000.8,N
1605385775.1,286047000.8,N
1605385795.8,286046998.1,N
1605385815.7,286047001.1,N
1605385835.5,286046998.6,N
1605385855.3,286046998.2,N
1605385875.2,286047000.7,N
1605385895.0,286047001.0,N
1605385895.9,286047001.0,N
1605385915.7,286046998.6,N
1605385935.6,286046996.6,N
1605385955.4,286046999.5,N
1605385975.2,286046998.7,N
1605385995.1,286046999.1,N
1605385996.0,286046999.1,N
1605386015.8,286046999.1,N
1605386035.6,286046999.1,N
1605386055.5,286046998.7,N
1605386075.3,286046996.5,N
1605386095.1,286046997.1,N
1605386115.9,286046997.7,N
1605386135.7,286046997.7,N
1605386155.5,286046996.8,N
1605386175.4,286046997.1,N
1605386195.2,286046996.9,N
1605386215.0,286046997.1,N
1605386215.9,286046997.1,N
1605386235.8,286046997.4,N
1605386255.6,286046998.0,N
1605386275.4,286046996.3,N
1605386295.3,286046995.7,N
1605386315.1,286046995.2,Y
1605386335.8,286046999.0,P
1605386355.7,286046999.1,N
1605386375.5,286046997.0,P
1605386395.3,286046996.8,Y
1605386415.2,286046998.2,P
1605386435.9,286046999.6,P
1605386455.7,286046999.3,N
1605386475.6,286046996.6,Y
1605386495.4,286047001.1,P
1605386515.2,286046998.6,N
1605386535.1,286047001.2,N
1605386536.0,286047001.2,N
1605386555.8,286047000.9,N
1605386575.6,286046998.5,N
1605386595.5,286046998.7,N
1605386615.3,286046999.1,N
1605386635.1,286046998.8,N
1605386655.9,286046999.3,N
1605386675.7,286046996.7,N
1605386695.5,286046999.3,N
1605386715.4,286046998.8,N
1605386735.2,286046998.7,N
1605386755.0,286046998.3,N
1605386755.9,286046998.3,N
1605386775.8,286046999.4,N
1605386795.6,286046998.8,N
1605386815.4,286046998.9,N
1605386835.3,286046998.4,N
1605386855.1,286046998.8,N
1605386856.0,286046998.8,N
1605386875.8,286046996.7,Y
1605386895.7,286046998.3,P
1605386915.5,286047000.9,N
1605386935.3,286046998.1,N
1605386955.2,286047001.2,N
1605386975.9,286047000.5,N
1605386995.7,286046999.9,N
1605387015.6,286047000.1,N
1605387035.4,286046999.7,N
1605387055.2,286046999.7,N
1605387075.1,286047002.6,N
1605387076.0,286047002.6,N
1605387095.8,286047000.2,N
1605387115.6,286047002.3,N
1605387135.5,286047002.6,N
1605387155.3,286047002.4,N
1605387175.1,286047002.3,N
1605387195.9,286047002.7,N
1605387215.7,286047001.6,N
1605387235.5,286047001.8,N
1605387255.4,286047001.6,N
1605387275.2,286047004.0,N
1605387295.0,286047003.7,N
1605387295.9,286047003.7,N
1605387315.8,286047003.4,N
1605387335.6,286047003.2,N
1605387355.4,286047003.0,N
1605387375.3,286047003.4,N
1605387395.1,286047003.0,N
1605387396.0,286047003.0,N
1605387415.8,286047005.4,Y
1605387435.7,286047003.9,P
1605387455.5,286047001.5,N
1605387475.3,286047002.5,N
1605387495.2,286047001.7,N
1605387515.9,286047003.8,Y
1605387535.7,286047000.3,P
1605387555.6,286047002.0,N
1605387575.4,286047002.3,N
1605387595.2,286047000.1,N
